Hourly Data Report for October 20, 2014

All times are specified in Local Standard Time (LST). Add 1 hour to adjust for Daylight Saving Time where and when it is observed.

PANGNIRTUNG
NUNAVUT

66°08'36.300" N
65°42'40.500" W
22.60 m
2403049
71826
WXP

Download Data

Hourly Data (October 2014)
Hourly Data Report for October 20, 2014
Temp Definition
°C
Dew Point Temp Definition
°C
Rel Hum Definition
%
Wind Dir Definition
10's deg

Wind Spd Definition
km/h
Visibility Definition
km
Stn Press Definition
kPa
Hmdx Definition


Wind Chill Definition


Weather Definition


TIME
00:00 -9.9 -12.3 83 17 4   101.32   -12 LegendNANA
01:00 -10.1 -12.7 81 21 4   101.33   -12 LegendNANA
02:00 -11.5 -13.8 83 20 4   101.34   -14 LegendNANA
03:00 -10.0 -12.4 82 13 2   101.33   -11 LegendNANA
04:00 -10.3 -13.6 77 12 3   101.33   -12 LegendNANA
05:00 -10.3 -13.4 78 16 2   101.32   -11 LegendNANA
06:00 -10.2 -13.0 80 11 13   101.30   -16 LegendNANA
07:00 -9.9 -12.7 80 12 5   101.30   -13 LegendNANA
08:00 -10.9 -13.7 80 7 3   101.28   -13 LegendNANA
09:00 -9.4 -11.6 84 24 10   101.26   -15 LegendNANA
10:00 -9.4 -11.9 82 20 4   101.24   -12 LegendNANA
11:00 -9.6 -12.1 82 21 3   101.22   -11 LegendNANA
12:00 -9.6 -12.0 83 21 3   101.18   -11 LegendNANA
13:00 -9.0 -11.3 84 20 6   101.16   -12 LegendNANA
14:00 -8.9 -11.1 84 19 7   101.14   -13 LegendNANA
15:00 -9.1 -11.1 85 18 5   101.09   -12 LegendNANA
16:00 -8.4 -10.1 87 28 1   101.07   -9 LegendNANA
17:00 -9.3 -11.2 86 20 3   101.01   -11 LegendNANA
18:00 -9.6 -11.2 88 21 2   100.97   -11 LegendNANA
19:00 -7.9 -10.0 85 19 6   100.88   -11 LegendNANA
20:00 -8.0 -9.4 89 6 6   100.81   -11 LegendNANA
21:00 -7.8 -9.4 88 1 7   100.74   -11 LegendNANA
22:00 -7.7 -9.2 89 10 2   100.65   -9 LegendNANA
23:00 -7.7 -9.2 89   0   100.58     LegendNANA

Notes on Data Quality.

Legend

  • E = Estimated
  • M = Missing
  • NA = Not Available
  • ‡ = Partner data that is not subject to review by the National Climate Archives
Date modified: